This is the latest recevied weather packets stored in our database for station/object W4NDF-13. If no packets are shown the sender has not sent any weather packets the latest 10 day(s).
| Time | Temp. | Humidity | Pressure | Rain* | Wind** | Luminosity | Snow |
|---|---|---|---|---|---|---|---|
| 1777209560 | 25° C | 90% | 1013.6 hPa | 0 mm | - | 86 W/m² | - |
| 1777209255 | 24.44° C | 91% | 1013.3 hPa | 0 mm | - | 112 W/m² | - |
| 1777208953 | 24.44° C | 92% | 1013.2 hPa | 0 mm | - | 177 W/m² | - |
| 1777208648 | 23.89° C | 92% | 1013.3 hPa | 0 mm | - | 136 W/m² | - |
| 1777208344 | 23.89° C | 93% | 1013.4 hPa | 0 mm | - | 85 W/m² | - |
| 1777208041 | 23.89° C | 93% | 1013.3 hPa | 0 mm | - | 72 W/m² | - |
| 1777207736 | 23.89° C | 93% | 1013.4 hPa | 0 mm | - | 61 W/m² | - |
| 1777207431 | 23.89° C | 94% | 1013.2 hPa | 0 mm | - | 64 W/m² | - |
| 1777207130 | 23.89° C | 94% | 1013.2 hPa | 0 mm | - | 71 W/m² | - |
| 1777206827 | 23.33° C | 94% | 1013.1 hPa | 0 mm | - | 57 W/m² | - |
| 1777206522 | 23.33° C | 94% | 1013 hPa | 0 mm | - | 46 W/m² | - |
| 1777206217 | 23.33° C | 94% | 1012.7 hPa | 0 mm | - | 40 W/m² | - |
| 1777205913 | 23.33° C | 94% | 1012.7 hPa | 0 mm | - | 28 W/m² | - |
| 1777205609 | 23.33° C | 94% | 1012.5 hPa | 0 mm | - | 27 W/m² | - |
| 1777205307 | 23.33° C | 94% | 1012.4 hPa | 0 mm | - | 25 W/m² | - |
| 1777205002 | 23.33° C | 95% | 1012.5 hPa | 0 mm | - | 22 W/m² | - |
| 1777204698 | 23.33° C | 95% | 1012.2 hPa | 0 mm | - | 23 W/m² | - |
| 1777204392 | 23.33° C | 95% | 1012 hPa | 0 mm | - | 27 W/m² | - |
| 1777204090 | 23.33° C | 95% | 1011.8 hPa | 0 mm | - | 25 W/m² | - |
| 1777203785 | 23.33° C | 95% | 1011.7 hPa | 0 mm | - | 21 W/m² | - |
| 1777203480 | 22.78° C | 95% | 1011.7 hPa | 0 mm | - | 16 W/m² | - |
| 1777203176 | 22.78° C | 95% | 1011.8 hPa | 0 mm | - | 9 W/m² | - |
| 1777202873 | 22.78° C | 95% | 1011.9 hPa | 0 mm | - | 5 W/m² | - |
| 1777202572 | 22.78° C | 95% | 1012 hPa | 0 mm | - | 2 W/m² | - |
| 1777202267 | 22.78° C | 95% | 1012.2 hPa | 0 mm | - | 1 W/m² | - |
* Rain latest hour (hover to see other rain measurements)
** Current wind speed in m/s (hover to see current wind gust speed)